軌道要素
Epoch 2006 Nov. 1.0 TT = JDT 2454040.5
T 2006 Nov. 15.4542 TT                                  MPCN
q   1.667350             (2000.0)            P               Q
n   0.1305749      Peri.  205.0158      +0.7171343      -0.6949995
a   3.847951       Node   199.3081      +0.6629233      +0.7032241
e   0.566691       Incl.    9.0316      +0.2150608      +0.1498382
P   7.55
From 459 observations 1984-2000, mean residual 1".0.  Nongravitational
     parameters A1 = +0.64, A2 = -0.0145.
  |